Starlink 31144

operational
NORAD ID: 58682 Int'l Des: 2023-211 Owner: SPXS Country: US Constellation: starlink
LEOCIRCULAR

About Starlink 31144

Description loading...

Live Position

Loading 3D Globe...

Upcoming Passes

Altitude History

Altitude vs Time

uPlot chart will show altitude changes over time

Two-Line Element Set

1 58682U 23211R 25306.08250928 .00001538 00000-0 65393-4 0 9995
2 58682 43.0002 85.5101 0001411 272.9421 87.1270 15.27575248102952
Epoch: Nov 2, 2025 • Age: 42 hours

Current Status

Altitude 482.1 km
Velocity 7.63 km/s
Sub-Earth Point 9.97°N, 96.76°E
Launch Date Dec 29, 2023
Age 1.8 years
Type internet

Technical Details

Classification Payload
Mass 730.00 kg
Dry Mass 700.00 kg
Total Mass 730.00 kg
Length 0.30 m
Diameter 4.10 m
Span 29.00 m
Shape Box + pan
Manufacturer SPXS
Bus Type Starlink V2M
Phase Status In Orbit
Owner/State SPXS/US

Large Constellations

Loading constellations...